| time (UTC) | temp F | wind direction | speed MPH | gust MPH | rain 1hr in | rain 24hr in | rain mn in | humidity % | barometer mb |
| 20260506233134 | 60 | 313 | 0.0 | 5.0 | 0.00 | 0.00 | 0.00 | 64 | 1024.9 |
| 20260506232630 | 60 | 186 | 0.0 | 0.0 | 0.00 | 0.00 | 0.00 | 65 | 1025.2 |
| 20260506232125 | 60 | 211 | 0.0 | 0.0 | 0.00 | 0.00 | 0.00 | 66 | 1025.0 |
| 20260506231623 | 59 | 282 | 0.0 | 3.0 | 0.00 | 0.00 | 0.00 | 66 | 1025.1 |
| 20260506231121 | 59 | 260 | 2.0 | 7.0 | 0.00 | 0.00 | 0.00 | 66 | 1025.2 |
| 20260506230618 | 59 | 274 | 0.0 | 5.0 | 0.00 | 0.00 | 0.00 | 66 | 1025.2 |
| 20260506230115 | 59 | 287 | 2.0 | 7.0 | 0.00 | 0.00 | 0.00 | 66 | 1025.2 |
| 20260506225611 | 59 | 211 | 0.0 | 0.0 | 0.00 | 0.00 | 0.00 | 66 | 1025.1 |
| 20260506225108 | 59 | 310 | 0.0 | 0.0 | 0.00 | 0.00 | 0.00 | 66 | 1025.1 |
| 20260506224604 | 60 | 273 | 0.0 | 0.0 | 0.00 | 0.00 | 0.00 | 65 | 1025.2 |
| 20260506224101 | 60 | 203 | 0.0 | 0.0 | 0.00 | 0.00 | 0.00 | 64 | 1025.2 |
| 20260506223557 | 60 | 185 | 0.0 | 0.0 | 0.00 | 0.00 | 0.00 | 65 | 1025.3 |
| 20260506223053 | 59 | 207 | 0.0 | 0.0 | 0.00 | 0.00 | 0.00 | 66 | 1025.1 |
| 20260506222550 | 59 | 277 | 0.0 | 5.0 | 0.00 | 0.00 | 0.00 | 67 | 1025.4 |
| 20260506222047 | 59 | 293 | 3.0 | 5.0 | 0.00 | 0.00 | 0.00 | 67 | 1025.4 |
| 20260506221544 | 59 | 282 | 0.0 | 0.0 | 0.00 | 0.00 | 0.00 | 67 | 1025.3 |
| 20260506221042 | 58 | 299 | 0.0 | 0.0 | 0.00 | 0.00 | 0.00 | 67 | 1025.6 |
| 20260506220538 | 59 | 204 | 0.0 | 0.0 | 0.00 | 0.00 | 0.00 | 67 | 1025.4 |
| 20260506220034 | 58 | 335 | 4.0 | 5.0 | 0.00 | 0.00 | 0.00 | 67 | 1025.6 |
| 20260506215531 | 58 | 220 | 0.0 | 0.0 | 0.00 | 0.00 | 0.00 | 68 | 1025.6 |
| 20260506215026 | 58 | 279 | 0.0 | 0.0 | 0.00 | 0.00 | 0.00 | 68 | 1025.6 |
| 20260506214524 | 58 | 289 | 0.0 | 0.0 | 0.00 | 0.00 | 0.00 | 68 | 1025.5 |
| 20260506214021 | 58 | 252 | 1.0 | 3.0 | 0.00 | 0.00 | 0.00 | 68 | 1025.5 |
| 20260506213519 | 58 | 263 | 0.0 | 0.0 | 0.00 | 0.00 | 0.00 | 68 | 1025.5 |
| 20260506213016 | 58 | 294 | 0.0 | 5.0 | 0.00 | 0.00 | 0.00 | 68 | 1025.5 |
| 20260506212512 | 58 | 292 | 2.0 | 5.0 | 0.00 | 0.00 | 0.00 | 68 | 1025.5 |
| 20260506212007 | 58 | 297 | 0.0 | 0.0 | 0.00 | 0.00 | 0.00 | 68 | 1025.6 |
| 20260506211503 | 58 | 293 | 3.0 | 7.0 | 0.00 | 0.00 | 0.00 | 68 | 1025.4 |
| 20260506211001 | 59 | 229 | 0.0 | 0.0 | 0.00 | 0.00 | 0.00 | 68 | 1025.4 |
| 20260506210457 | 58 | 307 | 1.0 | 5.0 | 0.00 | 0.00 | 0.00 | 68 | 1025.5 |
| 20260506205954 | 59 | 292 | 2.0 | 7.0 | 0.00 | 0.00 | 0.00 | 67 | 1025.3 |
| 20260506205450 | 59 | 280 | 0.0 | 0.0 | 0.00 | 0.00 | 0.00 | 67 | 1025.3 |
| 20260506204946 | 59 | 246 | 0.0 | 0.0 | 0.00 | 0.00 | 0.00 | 68 | 1025.3 |
| 20260506204444 | 59 | 294 | 0.0 | 0.0 | 0.00 | 0.00 | 0.00 | 67 | 1025.3 |
| 20260506203941 | 59 | 295 | 0.0 | 0.0 | 0.00 | 0.00 | 0.00 | 69 | 1025.5 |
| 20260506203438 | 59 | 245 | 0.0 | 0.0 | 0.00 | 0.00 | 0.00 | 69 | 1025.4 |
| 20260506202935 | 59 | 224 | 0.0 | 0.0 | 0.00 | 0.00 | 0.00 | 69 | 1025.1 |
| 20260506202432 | 59 | 252 | 0.0 | 0.0 | 0.00 | 0.00 | 0.00 | 69 | 1024.9 |
| 20260506201929 | 59 | 238 | 0.0 | 0.0 | 0.00 | 0.00 | 0.00 | 69 | 1025.1 |
| 20260506201426 | 58 | 130 | 0.0 | 0.0 | 0.00 | 0.00 | 0.00 | 71 | 1025.2 |
| 20260506200923 | 58 | 235 | 0.0 | 0.0 | 0.00 | 0.00 | 0.00 | 72 | 1025.2 |
| 20260506200419 | 58 | 223 | 0.0 | 0.0 | 0.00 | 0.00 | 0.00 | 71 | 1025.4 |
| 20260506195916 | 58 | 214 | 0.0 | 0.0 | 0.00 | 0.00 | 0.00 | 73 | 1025.1 |
| 20260506195413 | 57 | 280 | 1.0 | 5.0 | 0.00 | 0.00 | 0.00 | 72 | 1025.1 |
| 20260506194909 | 58 | 243 | 0.0 | 0.0 | 0.00 | 0.00 | 0.00 | 72 | 1025.2 |
| 20260506194406 | 58 | 135 | 0.0 | 0.0 | 0.00 | 0.00 | 0.00 | 72 | 1025.1 |
| 20260506193903 | 58 | 228 | 0.0 | 0.0 | 0.00 | 0.00 | 0.00 | 72 | 1025.1 |
| 20260506193400 | 58 | 204 | 0.0 | 0.0 | 0.00 | 0.00 | 0.00 | 73 | 1024.9 |
| 20260506192856 | 57 | 231 | 0.0 | 0.0 | 0.00 | 0.00 | 0.00 | 73 | 1025.2 |
| 20260506192354 | 57 | 89 | 0.0 | 0.0 | 0.00 | 0.00 | 0.00 | 73 | 1025.0 |
| 20260506191851 | 58 | 222 | 0.0 | 0.0 | 0.00 | 0.00 | 0.00 | 73 | 1025.2 |
| 20260506191347 | 57 | 199 | 0.0 | 0.0 | 0.00 | 0.00 | 0.00 | 73 | 1025.0 |
| 20260506190844 | 57 | 254 | 0.0 | 3.0 | 0.00 | 0.00 | 0.00 | 74 | 1024.9 |
| 20260506190340 | 57 | 170 | 0.0 | 5.0 | 0.00 | 0.00 | 0.00 | 73 | 1025.0 |
| 20260506185837 | 57 | 229 | 0.0 | 3.0 | 0.00 | 0.00 | 0.00 | 73 | 1025.1 |
| 20260506185334 | 57 | 126 | 3.0 | 5.0 | 0.00 | 0.00 | 0.00 | 73 | 1025.0 |
| 20260506184831 | 57 | 183 | 0.0 | 3.0 | 0.00 | 0.00 | 0.00 | 73 | 1025.2 |
| 20260506184328 | 57 | 142 | 0.0 | 3.0 | 0.00 | 0.00 | 0.00 | 73 | 1025.1 |
| 20260506183826 | 57 | 181 | 0.0 | 0.0 | 0.00 | 0.00 | 0.00 | 73 | 1025.1 |
| 20260506183321 | 57 | 210 | 0.0 | 7.0 | 0.00 | 0.00 | 0.00 | 73 | 1025.0 |
| 20260506182819 | 57 | 271 | 0.0 | 5.0 | 0.00 | 0.00 | 0.00 | 73 | 1025.0 |
| 20260506182315 | 57 | 158 | 1.0 | 7.0 | 0.00 | 0.00 | 0.00 | 73 | 1024.8 |
| 20260506181813 | 57 | 153 | 0.0 | 0.0 | 0.00 | 0.00 | 0.00 | 73 | 1024.8 |
| 20260506181311 | 57 | 196 | 0.0 | 0.0 | 0.00 | 0.00 | 0.00 | 73 | 1025.0 |
| 20260506180808 | 57 | 202 | 0.0 | 0.0 | 0.00 | 0.00 | 0.00 | 74 | 1024.7 |
| 20260506180303 | 57 | 137 | 0.0 | 0.0 | 0.00 | 0.00 | 0.00 | 73 | 1024.9 |
| 20260506175800 | 57 | 176 | 0.0 | 5.0 | 0.00 | 0.00 | 0.00 | 73 | 1024.8 |
| 20260506175257 | 57 | 193 | 0.0 | 0.0 | 0.00 | 0.00 | 0.00 | 73 | 1024.9 |
| 20260506174754 | 58 | 208 | 0.0 | 0.0 | 0.00 | 0.00 | 0.00 | 73 | 1025.1 |
| 20260506174252 | 57 | 230 | 0.0 | 0.0 | 0.00 | 0.00 | 0.00 | 74 | 1024.8 |
| 20260506173749 | 57 | 121 | 1.0 | 3.0 | 0.00 | 0.00 | 0.00 | 74 | 1024.9 |
| 20260506173246 | 57 | 169 | 0.0 | 0.0 | 0.00 | 0.00 | 0.00 | 74 | 1024.9 |
| 20260506172742 | 57 | 172 | 0.0 | 0.0 | 0.00 | 0.00 | 0.00 | 74 | 1025.0 |
| 20260506172239 | 57 | 193 | 0.0 | 0.0 | 0.00 | 0.00 | 0.00 | 74 | 1025.0 |
| 20260506171737 | 56 | 215 | 0.0 | 0.0 | 0.00 | 0.00 | 0.00 | 74 | 1025.0 |
| 20260506171234 | 57 | 163 | 0.0 | 0.0 | 0.00 | 0.00 | 0.00 | 73 | 1025.1 |
| 20260506170731 | 57 | 192 | 0.0 | 5.0 | 0.00 | 0.00 | 0.00 | 74 | 1024.8 |
| 20260506170228 | 56 | 183 | 0.0 | 0.0 | 0.00 | 0.00 | 0.00 | 75 | 1025.0 |
| 20260506165726 | 56 | 225 | 0.0 | 0.0 | 0.00 | 0.00 | 0.00 | 75 | 1024.6 |
| 20260506165223 | 56 | 225 | 0.0 | 0.0 | 0.00 | 0.00 | 0.00 | 75 | 1024.7 |
| 20260506164720 | 57 | 231 | 0.0 | 0.0 | 0.00 | 0.00 | 0.00 | 74 | 1024.7 |
| 20260506164217 | 56 | 171 | 0.0 | 0.0 | 0.00 | 0.00 | 0.00 | 74 | 1024.5 |
| 20260506163714 | 56 | 191 | 0.0 | 0.0 | 0.00 | 0.00 | 0.00 | 75 | 1024.7 |
| 20260506163209 | 56 | 214 | 0.0 | 5.0 | 0.00 | 0.00 | 0.00 | 75 | 1024.5 |
| 20260506162705 | 56 | 167 | 0.0 | 0.0 | 0.00 | 0.00 | 0.00 | 75 | 1024.4 |
| 20260506162203 | 56 | 137 | 0.0 | 0.0 | 0.00 | 0.00 | 0.00 | 75 | 1024.4 |
| 20260506161700 | 56 | 183 | 0.0 | 0.0 | 0.00 | 0.00 | 0.00 | 76 | 1024.4 |
| 20260506161156 | 56 | 199 | 0.0 | 0.0 | 0.00 | 0.00 | 0.00 | 78 | 1024.4 |
| 20260506160654 | 55 | 152 | 0.0 | 3.0 | 0.00 | 0.00 | 0.00 | 78 | 1024.4 |
| 20260506160151 | 55 | 194 | 0.0 | 0.0 | 0.00 | 0.00 | 0.00 | 78 | 1024.9 |
| 20260506155649 | 55 | 140 | 0.0 | 0.0 | 0.00 | 0.00 | 0.00 | 78 | 1024.8 |
| 20260506155146 | 55 | 171 | 0.0 | 0.0 | 0.00 | 0.00 | 0.00 | 78 | 1024.8 |
| 20260506153248 | 55 | 163 | 0.0 | 0.0 | 0.00 | 0.00 | 0.00 | 80 | 1024.3 |
| 20260506152745 | 54 | 122 | 0.0 | 5.0 | 0.00 | 0.00 | 0.00 | 80 | 1024.4 |
| 20260506152242 | 54 | 132 | 2.0 | 5.0 | 0.00 | 0.00 | 0.00 | 80 | 1024.4 |
| 20260506151741 | 54 | 159 | 0.0 | 0.0 | 0.00 | 0.00 | 0.00 | 80 | 1024.4 |
| 20260506151237 | 54 | 197 | 0.0 | 0.0 | 0.00 | 0.00 | 0.00 | 80 | 1024.5 |
| 20260506150734 | 54 | 145 | 0.0 | 5.0 | 0.00 | 0.00 | 0.00 | 79 | 1024.6 |
| 20260506150231 | 54 | 208 | 0.0 | 0.0 | 0.00 | 0.00 | 0.00 | 79 | 1024.4 |
| 20260506145728 | 54 | 222 | 0.0 | 3.0 | 0.00 | 0.00 | 0.00 | 79 | 1024.5 |
| 20260506145224 | 54 | 201 | 0.0 | 0.0 | 0.00 | 0.00 | 0.00 | 79 | 1024.5 |
| 20260506144722 | 54 | 220 | 0.0 | 0.0 | 0.00 | 0.00 | 0.00 | 79 | 1024.6 |
| 20260506144219 | 54 | 239 | 0.0 | 3.0 | 0.00 | 0.00 | 0.00 | 80 | 1024.2 |
| 20260506143716 | 54 | 214 | 0.0 | 3.0 | 0.00 | 0.00 | 0.00 | 79 | 1024.3 |
| 20260506143214 | 54 | 242 | 0.0 | 0.0 | 0.00 | 0.00 | 0.00 | 80 | 1024.0 |
| 20260506142712 | 54 | 122 | 0.0 | 3.0 | 0.00 | 0.00 | 0.00 | 79 | 1024.0 |
| 20260506142210 | 55 | 177 | 0.0 | 0.0 | 0.00 | 0.00 | 0.00 | 79 | 1024.3 |
| 20260506141708 | 54 | 169 | 0.0 | 5.0 | 0.00 | 0.00 | 0.00 | 79 | 1024.2 |
| 20260506141206 | 55 | 117 | 0.0 | 3.0 | 0.00 | 0.00 | 0.00 | 79 | 1024.3 |
| 20260506140703 | 55 | 126 | 0.0 | 0.0 | 0.00 | 0.00 | 0.00 | 78 | 1024.5 |
| 20260506140200 | 54 | 204 | 0.0 | 0.0 | 0.00 | 0.00 | 0.00 | 78 | 1024.3 |
| 20260506135657 | 54 | 142 | 0.0 | 3.0 | 0.00 | 0.00 | 0.00 | 79 | 1024.1 |
| 20260506135153 | 54 | 164 | 0.0 | 0.0 | 0.00 | 0.00 | 0.00 | 79 | 1024.3 |
| 20260506134650 | 54 | 228 | 0.0 | 0.0 | 0.00 | 0.00 | 0.00 | 79 | 1024.2 |
| 20260506134146 | 54 | 207 | 0.0 | 0.0 | 0.00 | 0.00 | 0.00 | 79 | 1024.0 |
| 20260506133643 | 54 | 240 | 2.0 | 5.0 | 0.00 | 0.00 | 0.00 | 80 | 1024.2 |
| 20260506133140 | 54 | 218 | 0.0 | 3.0 | 0.00 | 0.00 | 0.00 | 80 | 1024.2 |
| 20260506132637 | 54 | 189 | 0.0 | 0.0 | 0.00 | 0.00 | 0.00 | 80 | 1024.1 |
| 20260506132134 | 54 | 130 | 0.0 | 3.0 | 0.00 | 0.00 | 0.00 | 80 | 1023.7 |
| 20260506131632 | 54 | 212 | 0.0 | 5.0 | 0.00 | 0.00 | 0.00 | 81 | 1023.6 |
| 20260506131128 | 54 | 235 | 0.0 | 0.0 | 0.00 | 0.00 | 0.00 | 81 | 1023.7 |
| 20260506130625 | 54 | 180 | 0.0 | 0.0 | 0.00 | 0.00 | 0.00 | 82 | 1023.6 |
| 20260506130122 | 54 | 128 | 0.0 | 0.0 | 0.00 | 0.00 | 0.00 | 82 | 1023.7 |
| 20260506125620 | 54 | 151 | 0.0 | 0.0 | 0.00 | 0.00 | 0.00 | 82 | 1023.7 |
| 20260506125118 | 54 | 147 | 0.0 | 0.0 | 0.00 | 0.00 | 0.00 | 82 | 1023.6 |
| 20260506124615 | 54 | 212 | 0.0 | 0.0 | 0.00 | 0.00 | 0.00 | 82 | 1023.5 |
| 20260506124113 | 54 | 192 | 0.0 | 0.0 | 0.00 | 0.00 | 0.00 | 82 | 1023.6 |
| 20260506123610 | 54 | 208 | 0.0 | 0.0 | 0.00 | 0.00 | 0.00 | 82 | 1023.6 |
| 20260506123109 | 54 | 177 | 0.0 | 0.0 | 0.00 | 0.00 | 0.00 | 82 | 1023.1 |
| 20260506122605 | 54 | 144 | 0.0 | 0.0 | 0.00 | 0.00 | 0.00 | 82 | 1023.4 |
| 20260506122103 | 54 | 214 | 0.0 | 0.0 | 0.00 | 0.00 | 0.00 | 82 | 1023.4 |
| 20260506121601 | 54 | 156 | 0.0 | 0.0 | 0.00 | 0.00 | 0.00 | 82 | 1023.4 |
| 20260506121056 | 54 | 137 | 0.0 | 0.0 | 0.00 | 0.00 | 0.00 | 82 | 1023.4 |
| 20260506120555 | 54 | 146 | 0.0 | 0.0 | 0.00 | 0.00 | 0.00 | 82 | 1023.2 |
| 20260506120051 | 54 | 211 | 0.0 | 0.0 | 0.00 | 0.00 | 0.00 | 82 | 1023.2 |
| 20260506115549 | 54 | 190 | 0.0 | 0.0 | 0.00 | 0.00 | 0.00 | 82 | 1023.2 |
| 20260506115048 | 54 | 198 | 0.0 | 0.0 | 0.00 | 0.00 | 0.00 | 81 | 1023.1 |
| 20260506114545 | 55 | 197 | 0.0 | 0.0 | 0.00 | 0.00 | 0.00 | 81 | 1023.0 |
| 20260506114043 | 55 | 202 | 0.0 | 0.0 | 0.00 | 0.00 | 0.00 | 81 | 1023.1 |
| 20260506113541 | 55 | 209 | 0.0 | 0.0 | 0.00 | 0.00 | 0.00 | 80 | 1023.2 |
| 20260506113038 | 55 | 250 | 0.0 | 0.0 | 0.00 | 0.00 | 0.00 | 80 | 1023.3 |
| 20260506112534 | 55 | 229 | 0.0 | 0.0 | 0.00 | 0.00 | 0.00 | 80 | 1023.4 |
| 20260506112032 | 55 | 183 | 0.0 | 0.0 | 0.00 | 0.00 | 0.00 | 80 | 1023.1 |
| 20260506111530 | 55 | 192 | 0.0 | 0.0 | 0.00 | 0.00 | 0.00 | 79 | 1023.2 |
| 20260506111027 | 55 | 220 | 0.0 | 0.0 | 0.00 | 0.00 | 0.00 | 79 | 1022.9 |
| 20260506110524 | 55 | 235 | 0.0 | 0.0 | 0.00 | 0.00 | 0.00 | 79 | 1023.0 |
| 20260506110021 | 55 | 208 | 0.0 | 0.0 | 0.00 | 0.00 | 0.00 | 79 | 1023.1 |
| 20260506105517 | 55 | 191 | 0.0 | 0.0 | 0.00 | 0.00 | 0.00 | 79 | 1022.8 |
| 20260506105015 | 55 | 238 | 0.0 | 0.0 | 0.00 | 0.00 | 0.00 | 78 | 1023.0 |
| 20260506104513 | 55 | 229 | 0.0 | 0.0 | 0.00 | 0.00 | 0.00 | 78 | 1022.9 |
| 20260506104010 | 55 | 212 | 0.0 | 0.0 | 0.00 | 0.00 | 0.00 | 78 | 1022.7 |
| 20260506103507 | 55 | 218 | 0.0 | 0.0 | 0.00 | 0.00 | 0.00 | 78 | 1022.7 |
| 20260506103004 | 55 | 237 | 0.0 | 0.0 | 0.00 | 0.00 | 0.00 | 78 | 1022.7 |
| 20260506102503 | 55 | 225 | 0.0 | 0.0 | 0.00 | 0.00 | 0.00 | 78 | 1022.8 |
| 20260506101959 | 55 | 246 | 0.0 | 0.0 | 0.00 | 0.00 | 0.00 | 78 | 1022.7 |
| 20260506101455 | 55 | 209 | 0.0 | 0.0 | 0.00 | 0.00 | 0.00 | 78 | 1022.6 |
| 20260506100953 | 55 | 251 | 0.0 | 0.0 | 0.00 | 0.00 | 0.00 | 78 | 1022.6 |
| 20260506100451 | 55 | 220 | 0.0 | 0.0 | 0.00 | 0.00 | 0.00 | 78 | 1022.4 |
| 20260506095949 | 55 | 191 | 0.0 | 0.0 | 0.00 | 0.00 | 0.00 | 78 | 1022.4 |
| 20260506095447 | 55 | 189 | 0.0 | 0.0 | 0.00 | 0.00 | 0.00 | 78 | 1022.3 |
| 20260506094943 | 55 | 193 | 0.0 | 0.0 | 0.00 | 0.00 | 0.00 | 78 | 1022.3 |
| 20260506094442 | 55 | 231 | 0.0 | 0.0 | 0.00 | 0.00 | 0.00 | 78 | 1022.4 |
| 20260506093939 | 55 | 229 | 0.0 | 0.0 | 0.00 | 0.00 | 0.00 | 77 | 1022.4 |
| 20260506093437 | 55 | 215 | 0.0 | 0.0 | 0.00 | 0.00 | 0.00 | 77 | 1022.3 |
| 20260506092934 | 55 | 215 | 0.0 | 0.0 | 0.00 | 0.00 | 0.00 | 77 | 1022.5 |
| 20260506092432 | 55 | 206 | 0.0 | 0.0 | 0.00 | 0.00 | 0.00 | 77 | 1022.2 |
| 20260506091928 | 55 | 211 | 0.0 | 0.0 | 0.00 | 0.00 | 0.00 | 77 | 1022.1 |
| 20260506091427 | 55 | 182 | 0.0 | 0.0 | 0.00 | 0.00 | 0.00 | 77 | 1022.2 |
| 20260506090924 | 55 | 276 | 0.0 | 0.0 | 0.00 | 0.00 | 0.00 | 77 | 1022.1 |
| 20260506090421 | 55 | 194 | 0.0 | 0.0 | 0.00 | 0.00 | 0.00 | 77 | 1022.3 |
| 20260506085918 | 56 | 223 | 0.0 | 0.0 | 0.00 | 0.00 | 0.00 | 77 | 1022.3 |
| 20260506085414 | 56 | 157 | 0.0 | 0.0 | 0.00 | 0.00 | 0.00 | 77 | 1022.1 |
| 20260506084911 | 56 | 177 | 0.0 | 0.0 | 0.00 | 0.00 | 0.00 | 77 | 1021.9 |
| 20260506084408 | 56 | 200 | 0.0 | 0.0 | 0.00 | 0.00 | 0.00 | 77 | 1021.9 |
| 20260506083904 | 56 | 202 | 0.0 | 0.0 | 0.00 | 0.00 | 0.00 | 77 | 1021.9 |
| 20260506083401 | 56 | 212 | 0.0 | 0.0 | 0.00 | 0.00 | 0.00 | 77 | 1021.9 |
| 20260506082859 | 56 | 181 | 0.0 | 0.0 | 0.00 | 0.00 | 0.00 | 77 | 1022.1 |
| 20260506082355 | 56 | 183 | 0.0 | 0.0 | 0.00 | 0.00 | 0.00 | 77 | 1021.9 |
| 20260506081851 | 56 | 170 | 0.0 | 0.0 | 0.00 | 0.00 | 0.00 | 77 | 1022.0 |
| 20260506081350 | 56 | 214 | 0.0 | 0.0 | 0.00 | 0.00 | 0.00 | 77 | 1021.9 |
| 20260506080847 | 56 | 202 | 0.0 | 0.0 | 0.00 | 0.00 | 0.00 | 77 | 1022.0 |
| 20260506080343 | 56 | 205 | 0.0 | 0.0 | 0.00 | 0.00 | 0.00 | 78 | 1021.8 |
| 20260506073328 | 55 | 175 | 0.0 | 0.0 | 0.00 | 0.00 | 0.00 | 84 | 1021.9 |
| 20260506072824 | 54 | 180 | 0.0 | 0.0 | 0.00 | 0.00 | 0.00 | 84 | 1021.6 |
| 20260506072322 | 54 | 187 | 0.0 | 0.0 | 0.00 | 0.00 | 0.00 | 84 | 1021.6 |
| 20260506071820 | 54 | 172 | 0.0 | 0.0 | 0.00 | 0.00 | 0.00 | 84 | 1021.6 |
| 20260506071317 | 54 | 186 | 0.0 | 0.0 | 0.00 | 0.00 | 0.00 | 84 | 1021.6 |
| 20260506070814 | 54 | 169 | 0.0 | 0.0 | 0.00 | 0.00 | 0.00 | 84 | 1021.6 |
| 20260506070311 | 54 | 181 | 0.0 | 0.0 | 0.00 | 0.00 | 0.00 | 84 | 1021.5 |
| 20260506062248 | 55 | 161 | 0.0 | 0.0 | 0.00 | 0.00 | 0.00 | 83 | 1021.1 |
| 20260506061744 | 55 | 180 | 0.0 | 0.0 | 0.00 | 0.00 | 0.00 | 83 | 1021.0 |
| 20260506061241 | 55 | 169 | 0.0 | 0.0 | 0.00 | 0.00 | 0.00 | 83 | 1020.9 |
| 20260506060740 | 55 | 182 | 0.0 | 0.0 | 0.00 | 0.00 | 0.00 | 82 | 1020.8 |
| 20260506060237 | 55 | 126 | 0.0 | 0.0 | 0.00 | 0.00 | 0.00 | 82 | 1020.8 |
| 20260506051209 | 57 | 152 | 0.0 | 0.0 | 0.00 | 0.00 | 0.00 | 80 | 1020.5 |
| 20260506050707 | 57 | 162 | 0.0 | 0.0 | 0.00 | 0.00 | 0.00 | 80 | 1020.4 |
| 20260506050204 | 57 | 200 | 0.0 | 0.0 | 0.00 | 0.00 | 0.00 | 80 | 1020.4 |
| 20260506044655 | 58 | 143 | 0.0 | 0.0 | 0.00 | 0.00 | 0.00 | 79 | 1020.3 |
| 20260506044151 | 58 | 146 | 0.0 | 0.0 | 0.00 | 0.00 | 0.00 | 79 | 1020.3 |
| 20260506043649 | 58 | 149 | 0.0 | 0.0 | 0.00 | 0.00 | 0.00 | 79 | 1020.3 |
| 20260506043147 | 57 | 188 | 0.0 | 0.0 | 0.00 | 0.00 | 0.00 | 78 | 1020.4 |
| 20260506042646 | 58 | 185 | 0.0 | 0.0 | 0.00 | 0.00 | 0.00 | 78 | 1020.3 |
| 20260506042143 | 58 | 174 | 0.0 | 0.0 | 0.00 | 0.00 | 0.00 | 77 | 1020.2 |
| 20260506041641 | 59 | 174 | 0.0 | 0.0 | 0.00 | 0.00 | 0.00 | 77 | 1020.1 |
| 20260506041138 | 59 | 177 | 0.0 | 0.0 | 0.00 | 0.00 | 0.00 | 76 | 1020.2 |
| 20260506040635 | 59 | 177 | 0.0 | 0.0 | 0.00 | 0.00 | 0.00 | 76 | 1020.1 |
| 20260506040132 | 59 | 191 | 0.0 | 0.0 | 0.00 | 0.00 | 0.00 | 76 | 1020.3 |
| 20260506035629 | 59 | 191 | 0.0 | 0.0 | 0.00 | 0.00 | 0.00 | 75 | 1020.2 |
| 20260506035126 | 59 | 191 | 0.0 | 0.0 | 0.00 | 0.00 | 0.00 | 74 | 1020.1 |
| 20260506034623 | 60 | 182 | 0.0 | 0.0 | 0.00 | 0.00 | 0.00 | 74 | 1020.0 |
| 20260506034120 | 60 | 211 | 0.0 | 0.0 | 0.00 | 0.00 | 0.00 | 73 | 1020.0 |
| 20260506033617 | 60 | 206 | 0.0 | 0.0 | 0.00 | 0.00 | 0.00 | 73 | 1020.0 |
| 20260506033114 | 60 | 206 | 0.0 | 0.0 | 0.00 | 0.00 | 0.00 | 72 | 1019.9 |
| 20260506032612 | 60 | 203 | 0.0 | 0.0 | 0.00 | 0.00 | 0.00 | 71 | 1019.8 |
| 20260506032108 | 61 | 203 | 0.0 | 0.0 | 0.00 | 0.00 | 0.00 | 70 | 1019.9 |
| 20260506031605 | 61 | 207 | 0.0 | 0.0 | 0.00 | 0.00 | 0.00 | 70 | 1019.6 |
| 20260506031102 | 61 | 226 | 0.0 | 0.0 | 0.00 | 0.00 | 0.00 | 69 | 1019.6 |
| 20260506030601 | 62 | 226 | 0.0 | 0.0 | 0.00 | 0.00 | 0.00 | 69 | 1019.6 |
| 20260506030057 | 62 | 221 | 0.0 | 0.0 | 0.00 | 0.00 | 0.00 | 68 | 1019.7 |
| 20260506025554 | 63 | 219 | 0.0 | 0.0 | 0.00 | 0.00 | 0.00 | 68 | 1019.8 |
| 20260506025050 | 63 | 223 | 0.0 | 0.0 | 0.00 | 0.00 | 0.00 | 67 | 1019.6 |
| 20260506024548 | 63 | 213 | 0.0 | 0.0 | 0.00 | 0.00 | 0.00 | 67 | 1019.6 |
| 20260506024044 | 63 | 220 | 0.0 | 0.0 | 0.00 | 0.00 | 0.00 | 67 | 1019.7 |
| 20260506023540 | 63 | 207 | 0.0 | 0.0 | 0.00 | 0.00 | 0.00 | 67 | 1019.7 |
| 20260506023038 | 63 | 226 | 0.0 | 0.0 | 0.00 | 0.00 | 0.00 | 66 | 1019.5 |
| 20260506022535 | 63 | 179 | 0.0 | 0.0 | 0.00 | 0.00 | 0.00 | 66 | 1019.8 |
| 20260506022032 | 63 | 194 | 0.0 | 0.0 | 0.00 | 0.00 | 0.00 | 66 | 1019.3 |
| 20260506021530 | 64 | 208 | 0.0 | 0.0 | 0.00 | 0.00 | 0.00 | 65 | 1019.7 |
| 20260506021027 | 64 | 231 | 0.0 | 0.0 | 0.00 | 0.00 | 0.00 | 65 | 1019.7 |
| 20260506020525 | 64 | 239 | 0.0 | 0.0 | 0.00 | 0.00 | 0.00 | 66 | 1019.6 |
| 20260506020022 | 64 | 194 | 0.0 | 0.0 | 0.00 | 0.00 | 0.00 | 65 | 1019.7 |
| 20260506015519 | 64 | 265 | 0.0 | 0.0 | 0.00 | 0.00 | 0.00 | 65 | 1019.5 |
| 20260506015016 | 64 | 298 | 0.0 | 7.0 | 0.00 | 0.00 | 0.00 | 65 | 1019.5 |
| 20260506014514 | 64 | 297 | 0.0 | 0.0 | 0.00 | 0.00 | 0.00 | 64 | 1019.5 |
| 20260506014009 | 64 | 290 | 0.0 | 0.0 | 0.00 | 0.00 | 0.00 | 65 | 1019.5 |
| 20260506013507 | 64 | 274 | 0.0 | 0.0 | 0.00 | 0.00 | 0.00 | 64 | 1019.6 |
| 20260506013004 | 64 | 261 | 0.0 | 0.0 | 0.00 | 0.00 | 0.00 | 64 | 1019.4 |
| 20260506012500 | 65 | 283 | 0.0 | 0.0 | 0.00 | 0.00 | 0.00 | 64 | 1019.8 |
| 20260506011957 | 65 | 260 | 1.0 | 5.0 | 0.00 | 0.00 | 0.00 | 63 | 1019.7 |
| 20260506011454 | 65 | 218 | 0.0 | 3.0 | 0.00 | 0.00 | 0.00 | 63 | 1019.6 |
| 20260506010950 | 66 | 214 | 0.0 | 0.0 | 0.00 | 0.00 | 0.00 | 61 | 1019.6 |
| 20260506010450 | 66 | 315 | 4.0 | 7.0 | 0.00 | 0.00 | 0.00 | 61 | 1019.6 |
| 20260506005945 | 68 | 301 | 1.0 | 5.0 | 0.00 | 0.00 | 0.00 | 59 | 1019.7 |
| 20260506005444 | 68 | 249 | 0.0 | 0.0 | 0.00 | 0.00 | 0.00 | 58 | 1019.7 |
| 20260506004938 | 68 | 261 | 4.0 | 5.0 | 0.00 | 0.00 | 0.00 | 57 | 1019.8 |
| 20260506004437 | 68 | 232 | 0.0 | 0.0 | 0.00 | 0.00 | 0.00 | 59 | 1019.8 |
| 20260506003932 | 67 | 297 | 0.0 | 3.0 | 0.00 | 0.00 | 0.00 | 60 | 1019.7 |
| 20260506003429 | 67 | 220 | 0.0 | 0.0 | 0.00 | 0.00 | 0.00 | 61 | 1019.7 |
| 20260506002926 | 66 | 288 | 0.0 | 3.0 | 0.00 | 0.00 | 0.00 | 61 | 1019.6 |
| 20260506002422 | 66 | 308 | 5.0 | 7.0 | 0.00 | 0.00 | 0.00 | 60 | 1019.9 |
| 20260506001917 | 68 | 325 | 0.0 | 0.0 | 0.00 | 0.00 | 0.00 | 59 | 1019.9 |
| 20260506001415 | 66 | 295 | 0.0 | 5.0 | 0.00 | 0.00 | 0.00 | 60 | 1020.0 |
| 20260506000912 | 68 | 272 | 5.0 | 7.0 | 0.00 | 0.00 | 0.00 | 58 | 1019.7 |
| 20260506000409 | 66 | 278 | 3.0 | 12.0 | 0.00 | 0.00 | 0.00 | 61 | 1019.9 |
| 20260505235906 | 67 | 275 | 2.0 | 7.0 | 0.00 | 0.00 | 0.00 | 59 | 1020.1 |
| 20260505235404 | 67 | 265 | 0.0 | 7.0 | 0.00 | 0.00 | 0.00 | 60 | 1020.0 |
| 20260505234900 | 68 | 203 | 0.0 | 0.0 | 0.00 | 0.00 | 0.00 | 59 | 1020.1 |
| 20260505234358 | 68 | 214 | 0.0 | 0.0 | 0.00 | 0.00 | 0.00 | 60 | 1020.1 |
| 20260505233854 | 66 | 282 | 0.0 | 7.0 | 0.00 | 0.00 | 0.00 | 61 | 1020.1 |
| 20260505233353 | 67 | 294 | 5.0 | 10.0 | 0.00 | 0.00 | 0.00 | 59 | 1020.2 |